Regional Weather Roundup
Issued by NWS

Home | Current Version | Previous Version | Graphics & Text | Print | Product List | Glossary On
Versions: 1 2 3 4 5 6 7 8 9 10 11 12 13 14 15 16 17 18 19 20 21 22 23 24 25 26 27
000
ASUS45 KSLC 260810
RWRUT

UTAH REGIONAL WEATHER ROUNDUP
NATIONAL WEATHER SERVICE SALT LAKE CITY UT
200 AM MDT TUE JUL 26 2016

UTZ001>011-023>025-260900-

NORTHERN UTAH

CITY           SKY/WX    TMP DP  RH WIND       PRES   REMARKS
BRIGHAM CITY     N/A     72  41  32 SW5       30.04R
HILL AFB       CLOUDY    77  36  22 E14       30.07S
LOGAN          PTCLDY    62  48  60 CALM      30.08R
OGDEN          PTCLDY    73  37  27 S6        30.04S
PROVO AIRPORT  MOCLDY    73  43  33 SE7       30.07S
SALT LAKE CITY PTCLDY    82  40  22 SE12      30.02S
VERNAL         CLOUDY    65  38  36 CALM      30.16R
WENDOVER       CLEAR     81  28  15 CALM      30.05R
HEBER CITY     PTCLDY    55  45  67 CALM      30.17S

$$

UTZ012>022-026-027-260900-

SOUTHERN/CENTRAL UTAH

CITY           SKY/WX    TMP DP  RH WIND       PRES   REMARKS
BLANDING       CLOUDY    74  43  32 NE7       30.30F
BRYCE CANYON   MOCLDY    54  45  71 W8        30.37F
CEDAR CITY     PTCLDY    73  43  33 VRB3      30.17F
DELTA          PTCLDY    77  32  19 S8        30.07R
MILFORD        CLEAR     75  42  30 S14       30.10S
MOAB/CYNLANDS  CLOUDY    79  40  24 SW3       30.07F
PRICE          PTCLDY    67  31  26 NW5       30.21F
ST GEORGE      MOSUNNY   88  45  22 SE8       29.99S

$$

REGIONAL REPORTS     COLORADO/ARIZONA

CITY           SKY/WX    TMP DP  RH WIND       PRES   REMARKS
CRAIG, CO      CLOUDY    64  41  42 E3        30.24R
GRAND JUNCTION CLOUDY    79  43  27 E5        30.11F
RIFLE          CLOUDY    74  41  30 E8        30.20S
MONTROSE       CLOUDY    71  44  37 SE14      30.24F
CORTEZ         CLOUDY    67  48  50 E6        30.25R
PAGE, AZ       CLOUDY    86  45  23 SW7       30.07S
GRAND CANYON   CLOUDY    69  45  41 NE5       30.31F
KINGMAN        PTCLDY    80  53  39 SW6       30.02F
FLAGSTAFF      CLOUDY    56  55  97 CALM      30.34F

$$

REGIONAL REPORTS    NEVADA/IDAHO/WYOMING

CITY           SKY/WX    TMP DP  RH WIND       PRES   REMARKS
LAS VEGAS, NV  MOCLDY    95  42  16 S9        29.82S HX  91
ELY            CLEAR     58  22  24 SE7       30.20R
ELKO           CLEAR     67  20  16 N3        30.12S
POCATELLO, ID  CLEAR     56  36  47 CALM      30.08R
BURLEY         CLEAR     60  43  53 CALM      30.03R
EVANSTON, WY   CLOUDY    66  34  30 SE3       30.30S
ROCK SPRINGS   CLOUDY    65  29  25 W5        30.25R
KEMMERER         N/A     55  30  38 NW5       30.31R

$$




USA.gov is the U.S. government's official web portal to all federal, state and local government web resources and services.